Location: Lombard
(41.8800°N, 88.0080°W)
Time: 00:38:09
(UTC-05:00)

Tiros 1 - Pass Details

Date: 03 February 2023
Orbit: 628 x 662 km, 48.4° (Epoch: 20 March)

Event Time Altitude Azimuth Distance (km) Brightness Sun altitude
Rises 06:12:05 0° 296° (WNW) 2,941 - -9.8°
Reaches altitude 10° 06:14:27 10° 291° (WNW) 2,035 - -9.4°
Exits shadow 06:14:47 12° 290° (WNW) 1,906 8.9 -9.3°
Maximum altitude 06:19:00 52° 216° (SW) 803 7.5 -8.6°
Drops below altitude 10° 06:23:35 10° 140° (SE) 2,048 10.7 -7.7°
Sets 06:25:58 0° 135° (SE) 2,961 11.7 -7.3°
